AEHF-3 (USA 246)

Last updated on Sat Mar 14 2026 00:02:54 GMT+0000 (Coordinated Universal Time)

1 39256U 13050A 26072.54553817 .00000030 00000+0 00000+0 0 9990 2 39256 5.0589 68.0639 0091373 188.1494 347.1484 1.00275116 44691
UTC large
Height (km)
Speed (km/s)
/
Latitude / Longitude
Inclination (degrees)
Orbital Period (minutes)
Azimuth
Elevation
Range (km)
Doppler Factor

Next 0 passes for location: London (51.5072 / 0.1276)

Sorry there are no passes over London.